Regional Weather Roundup
Issued by NWS

Home | Current Version | Previous Version | Text Only | Print | Product List | Glossary Off
Versions: 1 2 3 4 5 6 7 8 9 10 11 12 13 14 15 16 17 18 19 20 21 22 23 24 25 26 27 28

000
ASUS45 KBOU 260607
RWRCO

WEATHER ROUNDUP FOR COLORADO
NATIONAL WEATHER SERVICE DENVER/BOULDER CO
1200 AM MDT THU MAY 26 2016

NOTE: "FAIR" INDICATES FEW OR NO CLOUDS BELOW 12000 FEET WITH NO
SIGNIFICANT WEATHER AND/OR OBSTRUCTIONS TO VISIBILITY.

COZ001>005-013-030-031-260700-
...NORTHWEST COLORADO...

CITY           SKY/WX    TMP DP  RH WIND       PRES   REMARKS
CRAIG          FAIR      43  32  65 SW9       30.07F
HAYDEN         FAIR      39  28  65 SW3       30.08R
MEEKER         FAIR      50  30  46 E9        30.06S
MOUNT WERNER   NOT AVBL
STEAMBOAT SPGS FAIR      39  29  67 CALM      30.08S
WALDEN         FAIR      37  27  65 CALM      30.15R
$$

COZ006>008-011-260700-
...WEST CENTRAL VALLEYS...

CITY           SKY/WX    TMP DP  RH WIND       PRES   REMARKS
GRAND JUNCTION FAIR      53  23  31 E5        29.94S
MONTROSE       FAIR      57  22  25 SE12      30.00S
EAGLE          FAIR      45  19  36 CALM      30.08F
RIFLE          FAIR      49  25  39 SE3       30.00S
DELTA          FAIR      58  23  26 N8        29.98S
NUCLA          MOCLDY    55  19  24 E7        30.02F
$$

COZ017>023-064>068-260700-
...SOUTHWEST COLORADO...

CITY           SKY/WX    TMP DP  RH WIND       PRES   REMARKS
DURANGO        FAIR      48  24  39 N5        30.05S
CORTEZ         FAIR      47  25  42 E8        30.01S
PAGOSA SPRINGS CLOUDY    54  22  29 NE5       30.13S
TELLURIDE      FAIR      43  19  37 SE3       30.18S
WOLF CREEK PAS MOCLDY    32  21  64 SW14      30.34F WCI  22
$$

COZ009-010-012-014-032>034-037-058>063-260700-
...CENTRAL COLORADO...

CITY           SKY/WX    TMP DP  RH WIND       PRES   REMARKS
ASPEN          FAIR      41  19  41 S6        30.10F
BUENA VISTA    FAIR      39  13  33 NW3       30.12F
COPPER MTN     NOT AVBL
BERTHOUD PASS  FAIR      30  21  69 E7        30.33R WCI  23
COTTONWOOD PAS FAIR      46   3  17 W7        30.21F
GUNNISON       FAIR      45  18  33 N9        30.13S
KREMMLING      FAIR      36  23  60 CALM      30.12S
LEADVILLE      FAIR      29   9  43 NE3       30.20F
MONARCH PASS   FAIR      36   7  30 MISG      30.41S
SALIDA         FAIR      47  16  28 W9        30.17F
SUNLIGHT       FAIR      41  14  33 CALM      30.26F
WILKERSON PASS FAIR      37  -2  18 W6        30.31S
$$

COZ069>075-260700-
...SAN LUIS VALLEY/SANGRE DE CRISTO MOUNTAINS...

CITY           SKY/WX    TMP DP  RH WIND       PRES   REMARKS
ALAMOSA        FAIR      43  26  51 S7        30.10F
LA VETA PASS   MOCLDY    45  19  36 S13G24    30.23F
SAGUACHE       FAIR      45  18  33 N6        30.12S
$$

COZ035-036-038>040-260700-
...NORTHERN COLORADO FRONT RANGE...

CITY           SKY/WX    TMP DP  RH WIND       PRES   REMARKS
DENVER INTL AP MOCLDY    51  42  71 N9        30.03R
DMNS CITY PARK   N/A     54  42  62 NE10G20   30.04R
AURORA         MOCLDY    50  44  81 N12       30.02R
FRONT RANGE AP NOT AVBL
ERIE MUNI ARPT FAIR      50  43  77 N6        30.04S
BOULDER MUN AP FAIR      54  41  62 NW3       30.04S
CENTENNIAL     MOCLDY    50  42  74 NW8       30.02R
BROOMFIELD     FAIR      52  43  71 N12       30.05R
FORT COLLINS   FAIR      48  39  71 W5        30.04R
LONGMONT       FAIR      54  44  68 NW5       30.06S
$$

COZ041-046-047-076>085-087-088-260700-
...PIKES PEAK/PALMER DIVIDE AND SOUTHERN FOOTHILLS...

CITY           SKY/WX    TMP DP  RH WIND       PRES   REMARKS
COLO. SPRINGS  FAIR      54  30  40 N13       30.02R
A. F. ACADEMY  FAIR      48  28  46 N7        30.03S
SCHRIEVER AFB  NOT AVBL
ELLICOTT       FAIR     N/A N/A N/A E17       29.98F
FALCON         FAIR      49  36  59 N9        30.06S
FORT CARSON    FAIR      55  28  35 N16       29.98R
LIMON          FAIR      51  41  68 E13       29.98S
MONUMENT HILL  FAIR      45  34  65 W6        30.09R
TRINIDAD       FAIR      51  19  28 W12       29.98F
$$

COZ042>045-048>051-090-091-260700-
...NORTHEAST COLORADO...

CITY           SKY/WX    TMP DP  RH WIND       PRES   REMARKS
GREELEY ARPT   FAIR      50  43  76 CALM      30.01F
AKRON          CLOUDY    58  39  49 N10G22    29.99R
BURLINGTON     FAIR      51  43  74 N7        29.94S
WRAY           FAIR      52  45  76 NE3       29.94F
STERLING       FAIR      50  46  87 W3        29.98R
HOLYOKE        NOT AVBL
FORT MORGAN    FAIR      53  41  64 NE15      29.99F
$$

COZ086-089-092>099-260700-
...SOUTHEAST COLORADO...

CITY           SKY/WX    TMP DP  RH WIND       PRES   REMARKS
PUEBLO         FAIR      61  16  17 SW7       29.90S
LA JUNTA       FAIR      58  32  37 SW9       29.87R
LAMAR          FAIR      55  36  48 E7        29.81F
SPRINGFIELD      N/A     65  22  19 SW15G26   29.89S
$$




USA.gov is the U.S. government's official web portal to all federal, state and local government web resources and services.